Hoonah, AK

10:59 PM AKST on February 20, 2018 (GMT -0900)
Hoonah

Weather History for PAOH - May, 2013

Change the Weather History Date:

Saturday, May 4, 2013

  Actual Average Record
Temperature  
Mean Temperature 50 °F -  
Max Temperature 56 °F 50 °F 63 °F (2014)
Min Temperature 43 °F 33 °F 21 °F (2002)
Degree Days  
Heating Degree Days 16    
Moisture  
Dew Point 46 °F    
Average Humidity 94    
Maximum Humidity 100    
Minimum Humidity 69    
Precipitation  
Precipitation 0.20 in - - ()
Sea Level Pressure  
Sea Level Pressure 30.22 in    
Wind  
Wind Speed 2 mph (ENE)    
Max Wind Speed 14 mph    
Max Gust Speed 24 mph    
Visibility 8 miles    
Events Rain    
Averages and records for this station are not official NWS values.
T = Trace of Precipitation, MM = Missing Value Source: NWS Daily Summary

Daily Weather History Graph

Daily Weather History Graph

Search for Another Location

Airport or City:

Trip Planner

Search our weather history database for the weather conditions in past years. The results will help you decide how hot, cold, wet, or windy it might be!

Date:

Astronomy

May. 04, 2013 Rise Set
Actual Time 5:00 AM AKDT 8:57 PM AKDT
Civil Twilight 4:10 AM AKDT 9:48 PM AKDT
Nautical Twilight 2:55 AM AKDT 11:05 PM AKDT
Astronomical Twilight 1:30 AM AKDT 12:25 AM AKDT
Moon 3:11 AM AKDT (5/4) 3:01 PM AKDT (5/4)
Length of Visible Light 17h 38m
Length of Day
15h 57m
Waning Crescent, 25% of the Moon is Illuminated
May 4
Waning Crescent
May 9
New
May 17
First Quarter
May 24
Full
May 31
Last Quarter

Hourly Weather History & Observations

Time (AKDT) Temp. Windchill Dew Point Humidity Pressure Visibility Wind Dir Wind Speed Gust Speed Precip Events Conditions
12:29 AM 44.6 °F - 44.6 °F 100% 30.25 in 6.0 mi Calm Calm - 0.03 in Rain Light Rain
12:56 AM 44.6 °F - 44.6 °F 100% 30.25 in 5.0 mi Calm Calm - N/A Rain Light Rain
1:19 AM 44.6 °F - 44.6 °F 100% 30.24 in 4.0 mi Calm Calm - 0.02 in Rain Light Rain
1:56 AM 43.9 °F - 43.9 °F 100% 30.24 in 5.0 mi Calm Calm - 0.08 in Rain Light Rain
2:15 AM 44.6 °F - 44.6 °F 100% 30.23 in 3.0 mi Calm Calm - 0.03 in Rain Light Rain
2:22 AM 44.6 °F - 44.6 °F 100% 30.22 in 3.0 mi Calm Calm - 0.03 in Rain Light Rain
2:56 AM 43.9 °F - 43.9 °F 100% 30.24 in 4.0 mi Calm Calm - 0.09 in Rain Light Rain
3:56 AM 43.0 °F - 43.0 °F 100% 30.22 in 7.0 mi Calm Calm - 0.03 in Rain Light Rain
4:56 AM 43.9 °F - 43.9 °F 100% 30.23 in 5.0 mi Calm Calm - 0.00 in   Overcast
5:56 AM 43.0 °F 41.3 °F 43.0 °F 100% 30.22 in 8.0 mi SE 3.5 mph - 0.00 in   Overcast
6:56 AM 45.0 °F 43.5 °F 45.0 °F 100% 30.23 in 10.0 mi Variable 3.5 mph - N/A   Overcast
7:56 AM 46.9 °F - 46.9 °F 100% 30.24 in 6.0 mi Variable 4.6 mph - N/A   Overcast
8:12 AM 46.4 °F - 46.4 °F 100% 30.23 in 1.8 mi Calm Calm - 0.00 in Rain Light Rain
8:26 AM 46.4 °F 45.2 °F 46.4 °F 100% 30.24 in 2.0 mi Variable 3.5 mph - 0.00 in Rain Light Rain
8:56 AM 46.9 °F - 46.9 °F 100% 30.23 in 4.0 mi ESE 4.6 mph - 0.00 in   Mostly Cloudy
9:28 AM 48.2 °F - 48.2 °F 100% 30.22 in 10.0 mi Calm Calm - N/A   Overcast
9:56 AM 48.9 °F - 48.9 °F 100% 30.23 in 10.0 mi Calm Calm - N/A   Overcast
10:56 AM 50.0 °F - 50.0 °F 100% 30.22 in 10.0 mi Variable 4.6 mph - N/A   Overcast
11:56 AM 52.9 °F - 50.0 °F 90% 30.24 in 10.0 mi Variable 3.5 mph - N/A   Overcast
12:12 PM 53.6 °F - 48.2 °F 82% 30.22 in 10.0 mi ENE 9.2 mph - N/A   Mostly Cloudy
12:56 PM 54.9 °F - 47.8 °F 77% 30.22 in 10.0 mi NE 9.2 mph - N/A   Mostly Cloudy
1:56 PM 56.8 °F - 46.9 °F 69% 30.21 in 10.0 mi SSW 13.8 mph 24.2 mph N/A   Overcast
2:56 PM 55.9 °F - 46.9 °F 72% 30.22 in 10.0 mi NNW 6.9 mph - N/A   Overcast
3:56 PM 55.4 °F - 46.4 °F 72% 30.19 in 10.0 mi West 9.2 mph - N/A   Mostly Cloudy
4:56 PM 52.9 °F - 45.9 °F 77% 30.20 in 10.0 mi WSW 11.5 mph 17.3 mph N/A   Scattered Clouds
5:56 PM 52.0 °F - 45.9 °F 80% 30.20 in 10.0 mi WNW 10.4 mph - N/A   Overcast
6:56 PM 51.8 °F - 46.4 °F 82% 30.20 in 10.0 mi West 8.1 mph - N/A   Overcast
7:56 PM 47.8 °F - 46.9 °F 97% 30.23 in 4.0 mi Calm Calm - 0.00 in Rain Light Rain
8:56 PM 46.9 °F - 46.9 °F 100% 30.22 in 6.0 mi Calm Calm - 0.00 in   Overcast
9:26 PM 46.4 °F 43.5 °F 46.4 °F 100% 30.22 in 10.0 mi ESE 5.8 mph - N/A   Overcast
9:56 PM 46.4 °F - 46.4 °F 100% 30.23 in 10.0 mi Calm Calm - N/A   Overcast
10:10 PM 46.4 °F 42.9 °F 46.4 °F 100% 30.22 in 10.0 mi East 6.9 mph - N/A   Overcast
10:56 PM 46.9 °F - 45.9 °F 96% 30.23 in 10.0 mi East 3.5 mph - N/A   Overcast
11:56 PM 46.9 °F - 45.9 °F 96% 30.22 in 10.0 mi ENE 4.6 mph - N/A   Overcast